Location: Ripley
(48.3812°N, 115.4473°W)
Time: 20:10:07
(UTC+00:00)

AO-7 - Visible Passes

Search period start: 29 June 2022 00:00
Search period end: 09 July 2022 00:00
Orbit: 1439 x 1459 km, 101.9° (Epoch: 29 June)

Date Brightness Start Highest point End Pass type
(mag) Time Alt. Az. Time Alt. Az. Time Alt. Az.
30 Jun ? 10:32:45 10° NE 10:38:03 18° E 10:43:20 10° SE visible
02 Jul ? 10:26:05 10° NE 10:30:51 16° E 10:35:35 10° ESE visible
04 Jul ? 10:19:33 10° NE 10:23:38 14° E 10:27:42 10° ESE visible
06 Jul ? 10:13:12 10° ENE 10:16:24 12° E 10:19:36 10° ESE visible
07 Jul ? 11:03:26 10° NE 11:10:23 28° E 11:17:17 10° SSE visible
08 Jul ? 10:07:18 10° ENE 10:09:10 11° E 10:11:02 10° E visible
